�N����,����,�~����,�C��,���x,�C��,����,���ϕ���,�ő�u�ԕ���,�ő厞����,���˗�,�I�_���x,�n�����x,�ő啗���N��,DTYPE
"23/03/09","00:10",0.0,7.4,81.5,1017.1,321.1,2.2,3.2,325.9,0.00,4.5,10.7,"00:04:00",1
"23/03/09","00:20",0.0,7.3,82.2,1017.1,304.1,1.7,2.5,318.4,0.00,4.5,10.5,"00:11:44",1
"23/03/09","00:30",0.0,7.2,82.9,1017.1,311.4,2.2,2.9,322.2,0.00,4.5,10.2,"00:27:52",1
"23/03/09","00:40",0.0,6.9,83.4,1016.8,307.7,1.8,2.6,316.4,0.00,4.3,10.4,"00:37:44",1
"23/03/09","00:50",0.0,6.9,83.9,1016.8,296.1,1.3,2.1,314.5,0.00,4.4,10.2,"00:42:32",1
"23/03/09","01:00",0.0,6.9,84.6,1016.4,318.4,2.0,2.9,322.6,0.00,4.5,10.2,"00:55:04",1
"23/03/09","01:10",0.0,6.7,85.1,1016.4,325.4,2.6,3.1,320.8,0.00,4.4,10.2,"01:03:20",1
"23/03/09","01:20",0.0,6.4,85.7,1016.6,292.4,1.8,2.8,315.5,0.00,4.2,10.1,"01:10:08",1
"23/03/09","01:30",0.0,7.2,85.9,1016.1,296.2,2.6,3.4,329.9,0.00,5.0,10.0,"01:29:52",1
"23/03/09","01:40",0.0,7.1,85.5,1016.1,322.8,1.8,3.1,315.4,0.00,4.9,9.9,"01:37:44",1
"23/03/09","01:50",0.0,6.4,85.8,1016.1,306.5,2.3,3.1,324.8,0.00,4.2,9.8,"01:41:26",1
"23/03/09","02:00",0.0,6.3,86.3,1016.1,313.5,1.7,2.2,311.3,0.00,4.2,9.9,"01:51:04",1
"23/03/09","02:10",0.0,6.4,86.6,1016.1,325.8,2.1,2.6,321.4,0.00,4.4,9.8,"02:06:16",1
"23/03/09","02:20",0.0,6.0,86.9,1015.9,314.0,1.7,2.2,315.9,0.00,4.0,9.9,"02:10:48",1
"23/03/09","02:30",0.0,6.1,87.4,1015.9,294.9,1.8,2.2,287.1,0.00,4.2,9.8,"02:26:08",1
"23/03/09","02:40",0.0,6.1,87.7,1015.9,323.6,1.2,2.0,278.8,0.00,4.3,9.8,"02:38:40",1
"23/03/09","02:50",0.0,5.9,88.2,1015.6,326.0,2.2,2.8,324.7,0.00,4.1,9.8,"02:47:08",1
"23/03/09","03:00",0.0,5.7,88.4,1015.6,313.9,1.5,1.9,346.1,0.00,4.0,9.5,"02:50:08",1
"23/03/09","03:10",0.0,5.7,88.9,1015.4,327.0,0.8,2.0,324.7,0.00,4.1,9.6,"03:09:14",1
"23/03/09","03:20",0.0,5.1,89.2,1015.4,327.8,2.3,2.6,328.9,0.00,3.5,9.5,"03:13:20",1
"23/03/09","03:30",0.0,5.1,89.8,1015.4,323.3,2.5,2.8,323.6,0.00,3.6,9.4,"03:26:46",1
"23/03/09","03:40",0.0,5.3,90.2,1015.4,317.0,2.3,2.6,322.6,0.00,3.9,9.5,"03:34:40",1
"23/03/09","03:50",0.0,5.4,90.6,1015.2,308.8,1.8,2.2,319.2,0.00,4.0,9.6,"03:49:42",1
"23/03/09","04:00",0.0,5.2,90.8,1015.2,315.2,1.5,1.9,319.8,0.00,3.9,9.5,"03:52:42",1
"23/03/09","04:10",0.0,5.1,91.3,1015.2,312.4,1.5,2.0,315.3,0.00,3.8,9.5,"04:01:00",1
"23/03/09","04:20",0.0,4.9,91.8,1015.2,298.0,1.6,2.0,304.8,0.00,3.7,9.3,"04:14:40",1
"23/03/09","04:30",0.0,4.9,91.9,1015.4,284.0,1.5,1.9,332.0,0.00,3.7,9.4,"04:20:52",1
"23/03/09","04:40",0.0,4.8,92.3,1015.4,294.9,1.5,2.4,320.8,0.00,3.7,9.2,"04:30:02",1
"23/03/09","04:50",0.0,4.5,92.5,1015.4,300.4,1.7,2.7,321.6,0.00,3.4,9.3,"04:41:24",1
"23/03/09","05:00",0.0,4.5,92.9,1015.2,293.7,1.6,2.4,319.9,0.00,3.5,9.2,"04:59:12",1
"23/03/09","05:10",0.0,4.6,93.1,1015.2,312.1,1.8,2.1,319.8,0.00,3.6,9.2,"05:00:14",1
"23/03/09","05:20",0.0,4.5,93.3,1015.2,283.6,0.7,1.4,295.1,0.00,3.6,9.1,"05:10:40",1
"23/03/09","05:30",0.0,4.6,93.5,1015.4,304.6,1.7,2.4,306.5,0.00,3.7,9.1,"05:25:26",1
"23/03/09","05:40",0.0,4.7,93.7,1015.4,250.3,0.6,2.2,318.8,0.00,3.8,9.2,"05:31:16",1
"23/03/09","05:50",0.0,4.5,93.9,1015.6,288.8,1.0,2.0,312.3,0.00,3.6,8.9,"05:44:30",1
"23/03/09","06:00",0.0,4.4,94.1,1015.2,312.6,2.1,2.6,310.9,0.00,3.6,9.1,"05:56:18",1
"23/03/09","06:10",0.0,4.3,94.4,1015.4,296.9,1.6,2.4,313.3,0.00,3.5,8.9,"06:01:50",1
"23/03/09","06:20",0.0,4.6,94.4,1015.6,297.0,1.2,1.6,293.2,0.00,3.8,9.0,"06:18:56",1
"23/03/09","06:30",0.0,4.3,94.7,1015.6,319.9,2.1,2.4,322.1,0.00,3.6,8.9,"06:20:46",1
"23/03/09","06:40",0.0,4.2,94.8,1015.2,289.6,1.3,1.8,300.2,0.00,3.5,8.9,"06:39:54",1
"23/03/09","06:50",0.0,4.4,95.2,1015.2,312.8,1.8,2.5,311.6,0.00,3.7,8.8,"06:40:02",1
"23/03/09","07:00",0.0,4.5,95.2,1015.2,307.2,2.0,2.6,319.6,0.00,3.8,8.8,"06:51:42",1
"23/03/09","07:10",0.0,4.8,95.4,1015.2,283.0,0.7,1.3,306.8,0.00,4.2,8.9,"07:03:00",1
"23/03/09","07:20",0.0,5.1,95.4,1015.4,97.9,0.5,1.9,322.4,0.00,4.5,8.7,"07:19:44",1
"23/03/09","07:30",0.0,4.9,95.7,1015.6,328.3,2.3,2.8,332.2,0.00,4.3,8.6,"07:20:16",1
"23/03/09","07:40",0.0,5.2,95.8,1015.9,306.9,1.5,2.2,328.3,0.01,4.6,8.6,"07:30:40",1
"23/03/09","07:50",0.0,5.6,96.0,1015.9,319.5,2.2,2.9,313.9,0.02,5.1,8.6,"07:45:14",1
"23/03/09","08:00",0.0,6.2,96.1,1016.1,318.3,2.1,2.8,324.4,0.03,5.7,8.7,"07:51:04",1
"23/03/09","08:10",0.0,6.9,96.0,1016.1,297.3,1.1,1.8,314.8,0.04,6.3,8.4,"08:07:12",1
"23/03/09","08:20",0.0,7.7,96.1,1016.4,310.6,1.3,1.9,314.9,0.06,7.2,8.7,"08:16:24",1
"23/03/09","08:30",0.0,8.8,96.0,1016.6,289.7,0.8,1.2,294.5,0.08,8.2,8.6,"08:21:12",1
"23/03/09","08:40",0.0,9.3,95.3,1016.6,261.8,0.5,1.2,256.9,0.10,8.6,8.6,"08:30:40",1
"23/03/09","08:50",0.0,9.2,94.4,1016.8,266.0,0.6,1.0,261.8,0.11,8.4,8.7,"08:43:12",1
"23/03/09","09:00",0.0,9.9,94.5,1017.1,240.3,0.5,1.3,255.4,0.13,9.1,8.7,"08:59:44",1
"23/03/09","09:10",0.0,10.5,93.8,1017.3,267.5,0.3,1.1,304.5,0.18,9.6,8.7,"09:07:56",1
"23/03/09","09:20",0.0,10.6,92.8,1017.3,259.8,0.5,1.1,273.0,0.19,9.5,8.7,"09:19:16",1
"23/03/09","09:30",0.0,11.1,90.7,1018.0,227.8,0.5,1.0,274.7,0.21,9.7,8.9,"09:20:10",1
"23/03/09","09:40",0.0,12.0,87.6,1018.5,339.9,0.7,1.4,318.7,0.25,10.0,8.7,"09:37:44",1
"23/03/09","09:50",0.0,12.7,82.9,1018.0,155.8,0.3,1.0,292.5,0.29,9.9,8.7,"09:40:40",1
"23/03/09","10:00",0.0,13.6,78.4,1017.8,236.1,0.3,0.9,132.4,0.27,10.0,8.9,"09:50:02",1
"23/03/09","10:10",0.0,14.2,74.0,1017.3,263.4,0.3,1.0,184.2,0.30,9.7,9.0,"10:07:36",1
"23/03/09","10:20",0.0,14.8,70.0,1017.3,163.9,0.5,1.3,141.8,0.31,9.4,8.9,"10:13:20",1
"23/03/09","10:30",0.0,15.1,67.8,1016.8,207.7,0.8,1.8,235.3,0.32,9.2,9.0,"10:28:02",1
"23/03/09","10:40",0.0,15.6,67.1,1016.8,255.5,0.8,1.8,127.8,0.34,9.6,9.1,"10:37:44",1
"23/03/09","10:50",0.0,15.9,65.5,1016.6,155.5,0.7,2.2,124.2,0.38,9.5,9.2,"10:48:24",1
"23/03/09","11:00",0.0,16.5,63.6,1016.6,177.8,0.8,2.4,108.5,0.39,9.6,9.2,"10:51:44",1
"23/03/09","11:10",0.0,17.1,62.3,1016.4,187.9,1.2,2.8,108.4,0.42,9.9,9.5,"11:05:36",1
"23/03/09","11:20",0.0,17.4,60.0,1016.4,129.7,1.2,3.1,126.4,0.45,9.6,9.4,"11:14:32",1
"23/03/09","11:30",0.0,17.4,60.4,1015.9,99.6,1.8,3.9,111.2,0.49,9.7,9.4,"11:27:52",1
"23/03/09","11:40",0.0,18.5,58.1,1015.6,159.7,1.8,4.3,162.2,0.53,10.2,9.6,"11:36:48",1
"23/03/09","11:50",0.0,19.0,55.8,1015.2,162.1,2.2,3.4,149.3,0.48,10.0,9.7,"11:41:44",1
"23/03/09","12:00",0.0,19.3,55.3,1015.2,149.8,2.6,5.9,154.8,0.49,10.2,9.9,"11:54:40",1
"23/03/09","12:10",0.0,19.6,55.6,1014.9,166.7,2.7,6.0,125.1,0.48,10.5,9.9,"12:02:08",1
"23/03/09","12:20",0.0,19.4,54.9,1014.7,242.1,3.2,9.4,274.0,0.46,10.1,10.3,"12:18:08",1
"23/03/09","12:30",0.0,19.2,56.1,1014.7,218.6,2.3,5.8,243.0,0.26,10.3,10.2,"12:28:48",1
"23/03/09","12:40",0.0,19.3,56.5,1014.5,238.4,2.7,5.2,234.7,0.25,10.5,10.3,"12:37:36",1
"23/03/09","12:50",0.0,19.6,55.4,1014.0,254.1,3.5,7.1,282.3,0.29,10.5,10.3,"12:46:40",1
"23/03/09","13:00",0.0,19.7,54.6,1014.2,206.4,3.4,6.6,165.1,0.28,10.3,10.3,"12:59:20",1
"23/03/09","13:10",0.0,19.3,54.8,1014.5,208.2,4.0,7.3,211.2,0.23,10.0,10.6,"13:09:36",1
"23/03/09","13:20",0.0,19.4,54.1,1014.0,220.5,3.7,8.2,242.6,0.23,9.9,10.7,"13:17:20",1
"23/03/09","13:30",0.0,19.5,55.0,1013.8,238.5,2.3,6.0,223.8,0.19,10.3,10.7,"13:26:48",1
"23/03/09","13:40",0.0,19.4,53.9,1013.5,249.1,3.4,7.3,240.9,0.19,9.9,10.7,"13:37:44",1
"23/03/09","13:50",0.0,19.8,53.8,1013.3,211.8,4.0,7.2,216.6,0.28,10.2,10.7,"13:45:36",1
"23/03/09","14:00",0.0,20.3,51.7,1013.3,256.9,3.5,7.0,258.2,0.38,10.1,10.8,"13:55:12",1
"23/03/09","14:10",0.0,20.7,51.1,1013.0,263.5,2.5,7.2,306.3,0.37,10.3,10.9,"14:05:36",1
"23/03/09","14:20",0.0,20.4,50.1,1013.0,243.3,3.4,9.4,231.4,0.29,9.7,11.0,"14:12:08",1
"23/03/09","14:30",0.0,20.2,51.1,1012.8,243.3,3.9,7.2,244.1,0.27,9.8,11.0,"14:21:20",1
"23/03/09","14:40",0.0,20.4,50.4,1012.1,219.8,3.1,5.5,239.6,0.26,9.8,11.1,"14:31:36",1
"23/03/09","14:50",0.0,20.6,51.3,1012.3,264.6,2.0,4.0,294.1,0.24,10.2,11.2,"14:47:20",1
"23/03/09","15:00",0.0,20.5,50.9,1012.1,268.1,2.6,4.9,345.7,0.24,10.0,11.2,"14:54:48",1
"23/03/09","15:10",0.0,20.5,50.3,1012.3,231.0,2.1,5.0,202.7,0.25,9.9,11.3,"15:04:40",1
"23/03/09","15:20",0.0,20.7,51.0,1012.1,256.5,2.0,4.2,342.9,0.22,10.3,11.6,"15:12:16",1
"23/03/09","15:30",0.0,20.2,50.6,1012.3,221.1,2.8,5.8,213.2,0.19,9.7,11.6,"15:25:20",1
"23/03/09","15:40",0.0,20.3,51.2,1012.1,229.8,2.8,5.1,233.3,0.17,9.9,11.6,"15:30:24",1
"23/03/09","15:50",0.0,20.4,50.2,1012.1,238.9,1.8,5.8,222.6,0.17,9.7,11.5,"15:40:40",1
"23/03/09","16:00",0.0,20.7,50.1,1012.1,276.7,1.6,3.6,275.3,0.17,10.0,11.7,"15:56:40",1
"23/03/09","16:10",0.0,20.6,50.5,1012.3,252.7,2.1,4.1,244.6,0.14,10.0,11.7,"16:01:36",1
"23/03/09","16:20",0.0,20.3,50.9,1012.1,217.4,2.6,7.9,228.5,0.14,9.9,11.7,"16:12:08",1
"23/03/09","16:30",0.0,20.1,51.0,1012.3,253.9,3.4,8.5,250.5,0.13,9.7,11.7,"16:27:28",1
"23/03/09","16:40",0.0,20.2,52.3,1012.1,238.6,2.6,5.8,235.8,0.14,10.2,11.6,"16:30:16",1
"23/03/09","16:50",0.0,20.0,51.8,1012.1,256.2,2.3,6.0,248.2,0.12,9.8,11.8,"16:45:36",1
"23/03/09","17:00",0.0,19.9,50.4,1011.9,251.1,3.1,7.1,223.8,0.11,9.3,11.9,"16:59:12",1
"23/03/09","17:10",0.0,20.1,49.5,1012.1,279.4,2.5,4.8,240.2,0.11,9.3,12.0,"17:00:24",1
"23/03/09","17:20",0.0,19.9,49.3,1011.9,279.2,2.3,3.4,250.0,0.07,9.0,11.7,"17:10:24",1
"23/03/09","17:30",0.0,19.6,49.5,1011.9,274.2,2.8,6.6,266.8,0.06,8.8,12.0,"17:22:40",1
"23/03/09","17:40",0.0,19.3,49.4,1011.9,250.2,2.5,5.4,244.3,0.04,8.5,11.9,"17:30:24",1
"23/03/09","17:50",0.0,19.2,47.8,1012.1,270.6,2.2,4.3,300.0,0.03,7.9,12.0,"17:49:44",1
"23/03/09","18:00",0.0,19.1,45.7,1011.9,286.8,3.1,5.9,260.0,0.02,7.2,11.9,"17:59:12",1
"23/03/09","18:10",0.0,19.0,47.0,1012.3,276.1,2.6,5.6,272.3,0.01,7.5,12.0,"18:02:16",1
"23/03/09","18:20",0.0,18.7,47.7,1012.6,290.3,2.3,3.6,272.2,0.00,7.4,11.7,"18:16:32",1
"23/03/09","18:30",0.0,18.3,48.8,1012.8,282.7,2.1,3.7,305.1,0.00,7.4,12.0,"18:28:40",1
"23/03/09","18:40",0.0,18.2,49.8,1012.8,273.8,3.1,6.7,317.0,0.00,7.6,11.9,"18:33:52",1
"23/03/09","18:50",0.0,18.0,53.3,1012.8,274.2,2.7,4.9,242.5,0.00,8.4,11.8,"18:46:40",1
"23/03/09","19:00",0.0,17.8,55.6,1012.8,294.5,3.0,5.1,310.0,0.00,8.8,11.9,"18:55:12",1
"23/03/09","19:10",0.0,17.7,58.4,1013.0,287.9,2.6,5.0,240.9,0.00,9.5,12.0,"19:02:56",1
"23/03/09","19:20",0.0,17.6,60.1,1013.0,298.1,2.7,5.0,339.2,0.00,9.8,11.9,"19:19:52",1
"23/03/09","19:30",0.0,17.5,61.3,1013.0,305.2,2.6,5.5,319.5,0.00,10.0,11.8,"19:20:48",1
"23/03/09","19:40",0.0,17.5,62.6,1013.3,291.4,2.0,3.6,331.1,0.00,10.3,12.0,"19:30:48",1
"23/03/09","19:50",0.0,17.4,63.6,1013.0,311.9,2.8,4.8,325.4,0.00,10.5,11.8,"19:46:00",1
"23/03/09","20:00",0.0,17.4,64.1,1013.0,305.6,2.6,4.5,310.2,0.00,10.6,11.9,"19:52:32",1
"23/03/09","20:10",0.0,17.1,65.1,1013.0,317.3,2.5,3.4,330.7,0.00,10.5,12.0,"20:03:28",1
"23/03/09","20:20",0.0,17.0,65.9,1013.3,312.3,2.0,4.4,347.6,0.00,10.6,11.7,"20:13:04",1
"23/03/09","20:30",0.0,16.9,66.7,1013.3,332.8,1.8,2.5,329.4,0.00,10.7,11.8,"20:21:20",1
"23/03/09","20:40",0.0,16.4,68.0,1013.3,314.7,1.1,2.1,309.3,0.00,10.5,11.8,"20:32:00",1
"23/03/09","20:50",0.0,16.3,69.1,1013.5,319.5,1.0,1.9,259.5,0.00,10.7,11.5,"20:48:12",1
"23/03/09","21:00",0.0,16.2,70.2,1013.5,295.9,0.8,1.6,58.2,0.00,10.8,11.7,"20:55:12",1
"23/03/09","21:10",0.0,16.1,70.7,1013.5,293.3,1.2,2.7,266.3,0.00,10.8,11.7,"21:01:24",1
"23/03/09","21:20",0.0,16.3,71.3,1013.5,320.4,1.3,2.4,263.4,0.00,11.1,11.6,"21:19:46",1
"23/03/09","21:30",0.0,16.8,71.0,1014.0,291.0,1.8,3.1,308.1,0.00,11.6,11.8,"21:27:12",1
"23/03/09","21:40",0.0,16.9,70.8,1014.2,281.8,1.6,3.6,318.3,0.00,11.6,11.6,"21:34:48",1
"23/03/09","21:50",0.0,16.9,70.7,1013.8,284.7,1.0,3.3,51.6,0.00,11.6,11.7,"21:44:08",1
"23/03/09","22:00",0.0,17.0,71.0,1013.8,227.4,1.6,5.1,318.9,0.00,11.7,11.7,"21:55:12",1
"23/03/09","22:10",0.0,17.0,71.2,1014.0,259.6,1.3,2.4,236.6,0.00,11.8,11.7,"22:04:48",1
"23/03/09","22:20",0.0,17.0,71.3,1013.5,264.0,1.5,3.7,267.3,0.00,11.8,11.6,"22:13:20",1
"23/03/09","22:30",0.0,16.8,71.7,1013.5,256.8,1.3,2.4,254.8,0.00,11.7,11.6,"22:27:44",1
"23/03/09","22:40",0.0,16.7,72.6,1013.5,232.8,1.3,2.6,228.2,0.00,11.8,11.6,"22:34:40",1
"23/03/09","22:50",0.0,16.5,73.2,1013.3,225.0,0.8,2.6,202.3,0.00,11.7,11.7,"22:47:04",1
"23/03/09","23:00",0.0,16.6,73.7,1013.5,279.5,1.3,3.2,251.4,0.00,11.9,11.7,"22:50:40",1
"23/03/09","23:10",0.0,16.5,74.3,1014.0,283.5,0.8,1.9,333.0,0.00,12.0,11.4,"23:07:58",1
"23/03/09","23:20",0.0,16.7,75.3,1013.8,271.4,2.1,4.0,309.7,0.00,12.4,11.8,"23:15:44",1
"23/03/09","23:30",0.0,16.7,76.2,1014.0,271.1,1.5,3.5,253.7,0.00,12.5,11.6,"23:20:56",1
"23/03/09","23:40",0.0,16.6,76.8,1014.0,288.4,1.8,3.1,330.8,0.00,12.6,11.6,"23:30:08",1
"23/03/09","23:50",0.0,16.5,77.4,1013.8,294.9,1.5,2.8,307.0,0.00,12.6,11.7,"23:43:20",1
"23/03/09","24:00",0.0,16.3,77.9,1013.8,302.2,0.8,2.0,323.1,0.00,12.5,11.7,"23:50:24",1
